Location: Cadenet
(43.7345°N, 5.3750°E)
Time: 10:16:08
(UTC+00:00)

Cosmos 1500 Rocket - Pass Details

Date: 18 February 2020
Orbit: 602 x 632 km, 82.5° (Epoch: 30 March)

Event Time Altitude Azimuth Distance (km) Brightness Sun altitude
Rises 05:12:54 0° 344° (NNW) 2,925 6.8 -15.3°
Reaches altitude 10° 05:15:15 10° 338° (NNW) 2,009 5.9 -14.8°
Maximum altitude 05:19:25 41° 268° (W) 902 3.9 -14.1°
Drops below altitude 10° 05:23:32 10° 198° (SSW) 1,976 6.0 -13.3°
Sets 05:25:49 0° 191° (S) 2,872 6.9 -12.9°
